Location: Hope
(40.9110°N, 74.9680°W)
Time: 02:49:43
(UTC-04:00)

VELOX 1 - Pass Details

Date: 02 August 2021
Orbit: 626 x 643 km, 98.3° (Epoch: 26 September)

Event Time Altitude Azimuth Distance (km) Brightness Sun altitude
Exits shadow 04:44:05 - 181° (S) 2,438 ? -12.7°
Reaches altitude 10° 04:45:08 10° 184° (S) 2,020 ? -12.5°
Maximum altitude 04:49:25 50° 260° (W) 819 ? -11.9°
Drops below altitude 10° 04:53:44 10° 336° (NNW) 2,044 ? -11.2°
Sets 04:56:01 0° 342° (NNW) 2,960 ? -10.9°
